When you browse on this site, cookies collect data to enhance your experience and personalize the content and advertising you see.
Visit our Privacy Policy to learn more. By continuing to use the site, you agree to this use of cookies and data.
  • In Czech Republic
  • List of Countries
  • For 7 days
  • Water Temperature
  • Weather Map
  • Weather Widgets
  • user-avatar
    Login

    Hourly Weather Kitzbuhel

    Today, 17 February, Monday

    Time Temperature Precipitation Wind Pressure Humidity
    00:00 +6°C° 0 mm 2 mps 679 mmHg 54%
    01:00 +5°C° 0 mm 3 mps 678 mmHg 53%
    02:00 +6°C° 0 mm 2 mps 678 mmHg 53%
    03:00 +5°C° 0 mm 2 mps 678 mmHg 53%
    04:00 +6°C° 0 mm 1 mps 678 mmHg 53%
    05:00 +6°C° 0 mm 1 mps 678 mmHg 54%
    06:00 +6°C° 0 mm 1 mps 678 mmHg 55%
    07:00 +6°C° 0 mm 1 mps 678 mmHg 56%
    08:00 +7°C° 0 mm 1 mps 678 mmHg 59%
    09:00 +8°C° 0 mm 1 mps 678 mmHg 61%
    10:00 +9°C° 0 mm 1 mps 678 mmHg 64%
    11:00 +9°C° 0 mm 1 mps 678 mmHg 65%
    12:00 +10°C° 0 mm 1 mps 678 mmHg 67%
    13:00 +10°C° 0 mm 1 mps 678 mmHg 69%
    14:00 +10°C° 0 mm 1 mps 678 mmHg 73%
    15:00 +9°C° 0 mm 1 mps 678 mmHg 77%
    16:00 +8°C° 0 mm 0 mps 677 mmHg 80%
    17:00 +7°C° 0.1 mm 0 mps 678 mmHg 83%
    18:00 +6°C° 0.1 mm 0 mps 678 mmHg 86%
    19:00 +6°C° 0.1 mm 1 mps 678 mmHg 89%
    20:00 +6°C° 0.5 mm 1 mps 678 mmHg 91%
    21:00 +6°C° 0.5 mm 1 mps 678 mmHg 93%
    22:00 +4°C° 0.5 mm 2 mps 679 mmHg 95%
    23:00 +4°C° 1.1 mm 1 mps 679 mmHg 96%

    Tomorrow, 18 February, Tuesday

    Time Temperature Precipitation Wind Pressure Humidity
    00:00 +4°C° 1.1 mm 1 mps 679 mmHg 96%
    01:00 +2°C° 1.1 mm 0 mps 679 mmHg 97%
    02:00 +3°C° 0.9 mm 1 mps 679 mmHg 97%
    03:00 +3°C° 0.9 mm 1 mps 680 mmHg 97%
    04:00 +3°C° 0.9 mm 1 mps 680 mmHg 97%
    05:00 +3°C° 0.4 mm 1 mps 680 mmHg 97%
    06:00 +3°C° 0.4 mm 1 mps 681 mmHg 96%
    07:00 +2°C° 0.4 mm 1 mps 681 mmHg 96%
    08:00 +3°C° 0.2 mm 1 mps 681 mmHg 92%
    09:00 +3°C° 0.2 mm 1 mps 682 mmHg 88%
    10:00 +4°C° 0.2 mm 1 mps 682 mmHg 84%
    11:00 +4°C° 0.1 mm 1 mps 682 mmHg 82%
    12:00 +3°C° 0.1 mm 2 mps 682 mmHg 81%
    13:00 +3°C° 0.1 mm 2 mps 682 mmHg 80%
    14:00 +4°C° 0 mm 1 mps 682 mmHg 80%
    15:00 +4°C° 0 mm 1 mps 681 mmHg 79%
    16:00 +4°C° 0 mm 1 mps 681 mmHg 79%
    17:00 +3°C° 0 mm 1 mps 681 mmHg 83%
    18:00 +1°C° 0 mm 0 mps 681 mmHg 87%
    19:00 0°C° 0 mm 0 mps 682 mmHg 91%
    20:00 0°C° 0 mm 0 mps 682 mmHg 91%
    21:00 0°C° 0 mm 0 mps 682 mmHg 92%
    22:00 0°C° 0 mm 0 mps 682 mmHg 92%
    23:00 0°C° 0 mm 0 mps 681 mmHg 91%

    Day after tomorrow, 19 February, Wednesday

    Time Temperature Precipitation Wind Pressure Humidity
    00:00 -1°C° 0 mm 0 mps 681 mmHg 91%
    01:00 -1°C° 0 mm 0 mps 680 mmHg 90%
    02:00 -1°C° 0 mm 0 mps 679 mmHg 90%
    03:00 -1°C° 0 mm 1 mps 679 mmHg 89%
    04:00 -1°C° 0 mm 1 mps 678 mmHg 88%
    05:00 -1°C° 0 mm 1 mps 678 mmHg 86%
    06:00 -1°C° 0 mm 1 mps 678 mmHg 84%
    07:00 -1°C° 0 mm 1 mps 677 mmHg 82%
    08:00 +1°C° 0 mm 1 mps 677 mmHg 77%
    09:00 +2°C° 0 mm 1 mps 677 mmHg 72%
    10:00 +3°C° 0 mm 1 mps 677 mmHg 68%
    11:00 +4°C° 0.1 mm 1 mps 677 mmHg 67%
    12:00 +3°C° 0.1 mm 2 mps 677 mmHg 67%
    13:00 +4°C° 0.1 mm 2 mps 677 mmHg 67%
    14:00 +3°C° 0.8 mm 2 mps 676 mmHg 73%
    15:00 +2°C° 0.8 mm 2 mps 676 mmHg 79%
    16:00 +1°C° 0.8 mm 2 mps 676 mmHg 84%
    17:00 -1°C° 1.9 mm 2 mps 676 mmHg 88%
    18:00 -2°C° 1.9 mm 2 mps 677 mmHg 92%
    19:00 -2°C° 1.9 mm 2 mps 678 mmHg 96%
    20:00 -3°C° 0.9 mm 2 mps 678 mmHg 95%
    21:00 -3°C° 0.9 mm 2 mps 678 mmHg 95%
    22:00 -2°C° 0.9 mm 1 mps 679 mmHg 95%
    23:00 -2°C° 0.4 mm 1 mps 679 mmHg 95%

    20 February, Thursday

    Time Temperature Precipitation Wind Pressure Humidity
    00:00 -2°C° 0.4 mm 1 mps 679 mmHg 95%
    01:00 -2°C° 0.4 mm 1 mps 679 mmHg 95%
    02:00 -2°C° 0.3 mm 1 mps 679 mmHg 94%
    03:00 -3°C° 0.3 mm 1 mps 679 mmHg 93%
    04:00 -3°C° 0.3 mm 1 mps 679 mmHg 92%
    05:00 -3°C° 0.1 mm 1 mps 679 mmHg 90%
    06:00 -3°C° 0.1 mm 1 mps 679 mmHg 87%
    07:00 -3°C° 0.1 mm 1 mps 678 mmHg 84%
    08:00 -1°C° 0 mm 1 mps 679 mmHg 80%
    09:00 0°C° 0 mm 1 mps 679 mmHg 76%
    10:00 +1°C° 0 mm 0 mps 679 mmHg 72%
    11:00 +2°C° 0 mm 0 mps 679 mmHg 72%
    12:00 +4°C° 0 mm 0 mps 679 mmHg 72%
    13:00 +5°C° 0 mm 0 mps 679 mmHg 72%
    14:00 +5°C° 0 mm 0 mps 678 mmHg 75%
    15:00 +5°C° 0 mm 0 mps 678 mmHg 77%
    16:00 +5°C° 0 mm 0 mps 678 mmHg 80%
    17:00 +4°C° 0 mm 1 mps 678 mmHg 80%
    18:00 +3°C° 0 mm 1 mps 678 mmHg 79%
    19:00 +1°C° 0 mm 2 mps 678 mmHg 79%
    20:00 -1°C° 0 mm 2 mps 678 mmHg 77%
    21:00 -1°C° 0 mm 2 mps 678 mmHg 75%
    22:00 -1°C° 0 mm 2 mps 678 mmHg 73%
    23:00 -1°C° 0 mm 2 mps 678 mmHg 71%

    21 February, Friday

    Time Temperature Precipitation Wind Pressure Humidity
    00:00 +1°C° 0 mm 1 mps 678 mmHg 70%
    01:00 +1°C° 0 mm 1 mps 678 mmHg 69%
    02:00 0°C° 0 mm 1 mps 678 mmHg 71%
    03:00 0°C° 0 mm 1 mps 678 mmHg 74%
    04:00 0°C° 0 mm 1 mps 678 mmHg 76%
    05:00 0°C° 0 mm 1 mps 679 mmHg 77%
    06:00 0°C° 0 mm 1 mps 679 mmHg 78%
    07:00 +1°C° 0 mm 1 mps 680 mmHg 79%
    14:00 +3°C° 0.1 mm 1 mps 683 mmHg 96%
    15:00 +3°C° 0 mm 1 mps 683 mmHg 90%
    16:00 +3°C° 0 mm 1 mps 683 mmHg 89%
    17:00 +2°C° 0 mm 1 mps 683 mmHg 90%
    18:00 +1°C° 0 mm 1 mps 683 mmHg 90%
    19:00 0°C° 0 mm 1 mps 683 mmHg 90%
    20:00 -1°C° 0 mm 1 mps 684 mmHg 87%
    21:00 -1°C° 0 mm 1 mps 684 mmHg 83%
    22:00 -1°C° 0 mm 1 mps 684 mmHg 80%
    23:00 -1°C° 0 mm 1 mps 684 mmHg 77%

    22 February, Saturday

    Time Temperature Precipitation Wind Pressure Humidity
    00:00 -1°C° 0 mm 1 mps 684 mmHg 74%
    01:00 0°C° 0 mm 1 mps 684 mmHg 71%
    02:00 0°C° 0 mm 1 mps 684 mmHg 69%
    03:00 0°C° 0 mm 1 mps 684 mmHg 67%
    04:00 0°C° 0 mm 1 mps 684 mmHg 65%
    05:00 0°C° 0 mm 1 mps 684 mmHg 64%
    06:00 0°C° 0 mm 1 mps 684 mmHg 63%
    07:00 0°C° 0 mm 1 mps 684 mmHg 61%
    08:00 +2°C° 0 mm 1 mps 684 mmHg 62%
    09:00 +4°C° 0 mm 1 mps 685 mmHg 63%
    10:00 +6°C° 0 mm 1 mps 685 mmHg 64%
    11:00 +7°C° 0 mm 1 mps 685 mmHg 63%
    12:00 +8°C° 0 mm 1 mps 685 mmHg 62%
    13:00 +9°C° 0 mm 1 mps 685 mmHg 61%
    14:00 +9°C° 0 mm 1 mps 685 mmHg 65%
    15:00 +9°C° 0 mm 1 mps 684 mmHg 69%
    16:00 +7°C° 0 mm 0 mps 684 mmHg 72%
    17:00 +7°C° 0 mm 1 mps 684 mmHg 69%
    18:00 +6°C° 0 mm 1 mps 684 mmHg 65%
    19:00 +3°C° 0 mm 2 mps 685 mmHg 62%
    20:00 +3°C° 0 mm 2 mps 685 mmHg 61%
    21:00 +3°C° 0 mm 2 mps 685 mmHg 60%
    22:00 +3°C° 0 mm 2 mps 686 mmHg 59%
    23:00 +4°C° 0 mm 2 mps 686 mmHg 62%
    Show more